Weather History for KSGH - August, 2014

Change the Weather History Date:

Sunday, August 10, 2014

  Actual Average (KDAY) Record (KDAY)
Temperature  
Mean Temperature 74 °F 73 °F  
Max Temperature 84 °F 83 °F 99 °F (1900)
Min Temperature 63 °F 64 °F 49 °F (1962)
Degree Days  
Heating Degree Days 0 0  
Month to date heating degree days 0  
Since 1 June heating degree days 22  
Since 1 July heating degree days 0  
Cooling Degree Days 8 8  
Month to date cooling degree days 86  
Year to date cooling degree days 625  
Since 1 June cooling degree days 555  
Growing Degree Days 24 (Base 50)    
Moisture  
Dew Point 68 °F    
Average Humidity 83    
Maximum Humidity 100    
Minimum Humidity 63    
Precipitation  
Precipitation 0.00 in 0.08 in 1.88 in (1961)
Month to date precipitation 0.94  
Year to date precipitation 26.26  
Snow  
Snow 0.00 in 0.00 in - ()
Month to date snowfall 0.0  
Since 1 June snowfall 0.0  
Since 1 July snowfall 0.0  
Snow Depth -    
Sea Level Pressure  
Sea Level Pressure 30.01 in    
Wind  
Wind Speed 6 mph (East)    
Max Wind Speed 16 mph    
Max Gust Speed 20 mph    
Visibility 8 miles    
Events Rain    
T = Trace of Precipitation, MM = Missing Value Source: NWS Daily Summary

Daily Weather History Graph

Daily Weather History Graph

Search for Another Location

Airport or City:

Trip Planner

Search our weather history database for the weather conditions in past years. The results will help you decide how hot, cold, wet, or windy it might be!

Date:

Astronomy

Aug. 10, 2014 Rise Set
Actual Time 6:42 AM EDT 8:38 PM EDT
Civil Twilight 6:13 AM EDT 9:07 PM EDT
Nautical Twilight 5:37 AM EDT 9:43 PM EDT
Astronomical Twilight 4:58 AM EDT 10:21 PM EDT
Moon 8:24 PM EDT (8/10) 6:33 AM EDT (8/10)
Length of Visible Light 14h 54m
Length of Day
13h 55m
Full, 100% of the Moon is Illuminated
Aug 10
Full
Aug 10
Full
Aug 17
Last Quarter
Aug 25
New
Sep 2
First Quarter

Hourly Weather History & Observations

Time (EDT) Temp. Heat Index Dew Point Humidity Pressure Visibility Wind Dir Wind Speed Gust Speed Precip Events Conditions
12:56 AM 66.9 °F - 64.9 °F 93% 30.04 in 7.0 mi ENE 5.8 mph - N/A   Clear
1:56 AM 65.8 °F - 63.9 °F 93% 30.03 in 7.0 mi ENE 3.5 mph - N/A   Clear
2:56 AM 65.8 °F - 63.9 °F 93% 30.03 in 7.0 mi Calm Calm - N/A   Clear
3:56 AM 63.9 °F - 61.9 °F 93% 30.03 in 6.0 mi Calm Calm - N/A   Clear
4:56 AM 63.0 °F - 61.9 °F 96% 30.03 in 5.0 mi Calm Calm - N/A   Clear
5:56 AM 63.9 °F - 63.9 °F 100% 30.02 in 4.0 mi East 6.9 mph - N/A   Clear
6:56 AM 63.9 °F - 63.9 °F 100% 30.03 in 3.0 mi East 5.8 mph - N/A   Clear
7:15 AM 64.4 °F - 64.4 °F 100% 30.05 in 2.5 mi Calm Calm - N/A   Clear
7:38 AM 66.2 °F - 64.4 °F 94% 30.06 in 3.0 mi East 5.8 mph - N/A   Clear
7:56 AM 66.9 °F - 65.8 °F 96% 30.04 in 4.0 mi East 8.1 mph - N/A   Clear
8:56 AM 70.0 °F - 66.9 °F 90% 30.05 in 8.0 mi ESE 8.1 mph - N/A   Clear
9:56 AM 74.8 °F - 68.0 °F 79% 30.04 in 10.0 mi East 11.5 mph - N/A   Partly Cloudy
10:56 AM 75.9 °F - 68.0 °F 76% 30.05 in 10.0 mi East 12.7 mph - N/A   Partly Cloudy
11:56 AM 77.9 °F - 68.0 °F 71% 30.05 in 10.0 mi ESE 12.7 mph - N/A   Clear
12:56 PM 79.9 °F - 68.9 °F 69% 30.04 in 10.0 mi ESE 10.4 mph - N/A   Partly Cloudy
1:56 PM 81.9 °F 86.0 °F 70.9 °F 69% 30.03 in 10.0 mi East 8.1 mph - N/A   Clear
2:56 PM 83.8 °F 88.1 °F 70.0 °F 63% 30.01 in 10.0 mi East 8.1 mph - 0.00 in Rain Light Rain
3:56 PM 84.9 °F 90.1 °F 70.9 °F 63% 30.00 in 10.0 mi East 11.5 mph - 0.00 in   Partly Cloudy
4:56 PM 83.8 °F 88.1 °F 70.0 °F 63% 29.99 in 9.0 mi East 10.4 mph - 0.00 in   Clear
5:56 PM 84.9 °F 90.1 °F 70.9 °F 63% 29.97 in 10.0 mi East 10.4 mph - 0.00 in   Scattered Clouds
6:56 PM 82.9 °F 87.0 °F 70.0 °F 65% 29.96 in 10.0 mi East 9.2 mph - N/A   Partly Cloudy
7:56 PM 79.9 °F - 70.0 °F 72% 29.96 in 10.0 mi ESE 16.1 mph 19.6 mph N/A   Mostly Cloudy
8:56 PM 77.0 °F - 70.0 °F 79% 29.96 in 10.0 mi SE 6.9 mph - N/A   Mostly Cloudy
9:56 PM 74.8 °F - 70.9 °F 87% 29.97 in 9.0 mi SE 6.9 mph - N/A   Scattered Clouds
10:56 PM 72.9 °F - 70.9 °F 93% 29.98 in 9.0 mi ESE 4.6 mph - N/A   Scattered Clouds
11:40 PM 73.4 °F - 71.6 °F 94% 30.00 in 9.0 mi East 5.8 mph - N/A   Mostly Cloudy
11:56 PM 72.9 °F - 70.9 °F 93% 29.98 in 9.0 mi East 5.8 mph - N/A   Overcast